Home > Time Zones > World Clock > Weather > France > Lyon > Past weeks

Flag for France Weather past 2 weeks in Lyon, France

Now
28 °F

Ice fog.


Feels Like: 28 °F
Forecast: 27 / 51 °F
Wind: No wind

Location: Lyon / Bron

Current Time: Dec 22, 2014 at 11:06:24 PM

Latest Report: Dec 22, 2014 at 10:30 PM


Visibility: 0 mi

Pressure: 30.45 "Hg

Humidity: 100%

Dew point: 28 °F

Location of LyonLocation

Historic Weather in Lyon — Graph

°F

Lyon temperature yesterday

Maximum temperature yesterday: 50 °F (at 1:30 PM)
Minimum temperature yesterday: 34 °F (at 11:30 PM)
Average temperature yesterday: 42 °F

Past Weeks' High & Low Weather Summary

 TemperatureHumidityPressure
High57 °F (Dec 13, 11:30 AM)100% (Dec 11, 9:00 AM)30.60 "Hg (Dec 11, 9:00 AM)
Low28 °F (Dec 22, 5:30 AM)55% (Dec 13, 11:30 AM)29.83 "Hg (Dec 13, 4:30 AM)
Average45 °F82%30.21 "Hg
* Reported Dec 7 10:00 PM — Dec 22 10:00 PM, Lyon, Weather by CustomWeather, © 2014

Note: Actual official high and low records may vary slightly from our data, if they occured in-between our weather recording intervals... More about our weather records

Advertising

Lyon weather history for previous 24 hours

 ConditionsComfort  
Time TempWeatherWind HumidityBarometerVisibility
10:00 PM
Dec 22
30 °FIce fog.No wind93%30.45 "Hg0 mi
9:30 PM30 °FIce fog.No wind93%30.45 "Hg0 mi
9:00 PM30 °FIce fog.No wind93%30.45 "Hg0 mi
8:30 PM30 °FIce fog.No wind93%30.45 "Hg0 mi
8:00 PM30 °FIce fog.2 mph93%30.45 "Hg0 mi
7:30 PM32 °FIce fog.No wind93%30.45 "Hg0 mi
7:00 PM32 °FFog.2 mph93%30.45 "Hg1 mi
6:30 PM34 °FFog.2 mph93%30.45 "Hg3 mi
6:00 PM36 °FClear.3 mph87%30.45 "Hg4 mi
5:30 PM37 °FClear.3 mph87%30.45 "Hg4 mi
5:00 PM39 °FClear.3 mph87%30.45 "Hg4 mi
4:30 PM41 °FClear.3 mph81%30.45 "Hg6 mi
4:00 PM45 °FClear.2 mph71%30.45 "HgN/A
3:30 PM45 °FClear.No wind76%30.45 "HgN/A
3:00 PM43 °FClear.5 mph76%30.45 "HgN/A
2:30 PM43 °FClear.3 mph76%30.45 "HgN/A
2:00 PM41 °FClear.5 mph81%30.48 "HgN/A
1:30 PM41 °FClear.2 mph81%30.48 "HgN/A
1:00 PM41 °FClear.3 mph81%30.48 "Hg5 mi
12:00 PM37 °FClear.6 mph87%30.51 "Hg4 mi
11:30 AM36 °FFog.3 mph93%30.54 "Hg3 mi
11:00 AM36 °FFog.3 mph87%30.54 "Hg3 mi
10:30 AM34 °FClear.3 mph93%30.54 "Hg4 mi
10:00 AM32 °FIce fog.No wind93%30.51 "Hg3 mi
9:30 AM30 °FIce fog.No wind100%30.51 "Hg3 mi
9:00 AM28 °FIce fog.No wind93%30.54 "Hg0 mi
8:30 AM28 °FIce fog.2 mph93%30.51 "Hg0 mi
8:00 AM28 °FIce fog.2 mph93%30.51 "Hg1 mi
7:30 AM28 °FIce fog.No wind93%30.51 "Hg2 mi
7:00 AM28 °FIce fog.No wind93%30.51 "Hg2 mi
6:30 AM28 °FIce fog.No wind93%30.51 "Hg2 mi
6:00 AM28 °FIce fog.No wind93%30.51 "Hg1 mi
5:30 AM28 °FIce fog.1 mph93%30.51 "Hg2 mi
4:30 AM30 °FIce fog.2 mph93%30.54 "Hg3 mi
3:30 AM30 °FIce fog.2 mph93%30.54 "Hg3 mi
3:00 AM30 °FClear.No wind93%30.54 "Hg4 mi
2:30 AM32 °FClear.No wind93%30.54 "Hg6 mi
2:00 AM32 °FClear.2 mph87%30.54 "Hg6 mi
1:30 AM32 °FClear.3 mph93%30.54 "HgN/A
1:00 AM32 °FClear.2 mph93%30.57 "Hg4 mi
12:30 AM32 °FClear.2 mph93%30.57 "Hg5 mi
12:00 AM34 °FClear.2 mph93%30.57 "Hg5 mi
11:30 PM
Dec 21
34 °FClear.2 mph87%30.57 "Hg5 mi
Weather by CustomWeather, © 2014

See weather overviewHow to use our weather pages